Dodge Center, MN

11:09 PM CST on December 14, 2019 (GMT -0600)
Dodge Center

Weather History for KTOB - November, 2019

Change the Weather History Date:

Wednesday, November 13, 2019

  Actual Average (KRST) Record (KRST)
Temperature  
Mean Temperature 22 °F -  
Max Temperature 28 °F 40 °F 71 °F (1999)
Min Temperature 15 °F 24 °F -4 °F (1986)
Degree Days  
Heating Degree Days 44    
Moisture  
Dew Point 16 °F    
Average Humidity 77    
Maximum Humidity 93    
Minimum Humidity 68    
Precipitation  
Precipitation 0.00 in - - ()
Sea Level Pressure  
Sea Level Pressure 29.94 in    
Wind  
Wind Speed 14 mph ()    
Max Wind Speed 23 mph    
Max Gust Speed 29 mph    
Visibility 9.3 miles    
Events Snow    
Averages and records for this station are not official NWS values.
T = Trace of Precipitation, MM = Missing Value Source: Averaged Metar Reports

Daily Weather History Graph

Daily Weather History Graph

Search for Another Location

Airport or City:

Astronomy

Nov. 13, 2019 Rise Set
Actual Time 7:03 AM CST 4:47 PM CST
Civil Twilight 6:32 AM CST 5:18 PM CST
Nautical Twilight 5:57 AM CST 5:52 PM CST
Astronomical Twilight 5:23 AM CST 6:26 PM CST
Moon 5:49 PM CST (11/13) 7:57 AM CST (11/13)
Length of Visible Light 10h 45m
Length of Day
9h 43m
Full, 99% of the Moon is Illuminated
Nov 13
Full
Nov 19
Last Quarter
Nov 26
New
Dec 4
First Quarter
Dec 11
Full

Hourly Weather History & Observations

Time (CST) Temp. Windchill Dew Point Humidity Pressure Visibility Wind Dir Wind Speed Gust Speed Precip Events Conditions
12:16 AM 15.8 °F -1.9 °F 6.8 °F 68% 30.02 in 10.0 mi South 21.9 mph 27.6 mph N/A   Clear
12:35 AM 15.8 °F -1.5 °F 6.8 °F 68% 30.01 in 10.0 mi South 20.7 mph 27.6 mph N/A   Clear
12:36 AM 15.8 °F -1.5 °F 6.8 °F 68% 30.01 in 10.0 mi South 20.7 mph 27.6 mph N/A   Clear
12:55 AM 15.8 °F -1.9 °F 6.8 °F 68% 29.99 in 10.0 mi South 21.9 mph 26.5 mph N/A   Clear
12:56 AM 15.8 °F -1.9 °F 6.8 °F 68% 29.99 in 10.0 mi South 21.9 mph 26.5 mph N/A   Clear
1:15 AM 15.8 °F -2.3 °F 6.8 °F 68% 29.97 in 10.0 mi South 23.0 mph 28.8 mph N/A   Clear
1:37 AM 15.8 °F -2.3 °F 8.6 °F 73% 29.96 in 10.0 mi South 23.0 mph 28.8 mph N/A   Clear
1:56 AM 15.8 °F -1.9 °F 8.6 °F 73% 29.95 in 10.0 mi South 21.9 mph - N/A   Clear
2:15 AM 15.8 °F -1.1 °F 8.6 °F 73% 29.94 in 10.0 mi South 19.6 mph - N/A   Clear
2:16 AM 15.8 °F -1.5 °F 8.6 °F 73% 29.94 in 10.0 mi South 20.7 mph - N/A   Clear
2:35 AM 15.8 °F -1.5 °F 8.6 °F 73% 29.94 in 10.0 mi South 20.7 mph 27.6 mph N/A   Clear
2:36 AM 15.8 °F -0.6 °F 8.6 °F 73% 29.94 in 10.0 mi South 18.4 mph 27.6 mph N/A   Clear
2:59 AM 15.8 °F -1.1 °F 8.6 °F 73% 29.93 in 10.0 mi South 19.6 mph 25.3 mph N/A   Unknown
3:17 AM 17.6 °F 0.9 °F 8.6 °F 68% 29.93 in 10.0 mi South 20.7 mph - N/A   Clear
3:36 AM 17.6 °F 1.7 °F 8.6 °F 68% 29.92 in 10.0 mi South 18.4 mph 24.2 mph N/A   Clear
3:55 AM 17.6 °F 1.7 °F 8.6 °F 68% 29.92 in 10.0 mi South 18.4 mph 27.6 mph N/A   Scattered Clouds
4:15 AM 15.8 °F 0.9 °F 8.6 °F 73% 29.91 in 10.0 mi South 15.0 mph 25.3 mph N/A   Scattered Clouds
4:19 AM 17.6 °F 2.2 °F 10.4 °F 73% 29.91 in 10.0 mi South 17.3 mph 25.3 mph N/A   Scattered Clouds
4:37 AM 15.8 °F -1.5 °F 8.6 °F 73% 29.89 in 10.0 mi South 20.7 mph 25.3 mph N/A   Scattered Clouds
4:55 AM 17.6 °F 1.3 °F 10.4 °F 73% 29.90 in 10.0 mi South 19.6 mph - N/A   Mostly Cloudy
5:15 AM 17.6 °F 1.3 °F 10.4 °F 73% 29.89 in 10.0 mi South 19.6 mph - N/A   Scattered Clouds
5:16 AM 17.6 °F 1.3 °F 10.4 °F 73% 29.90 in 10.0 mi South 19.6 mph - N/A   Scattered Clouds
5:35 AM 17.6 °F 3.2 °F 10.4 °F 73% 29.90 in 10.0 mi South 15.0 mph - N/A   Mostly Cloudy
5:36 AM 17.6 °F 3.2 °F 10.4 °F 73% 29.89 in 10.0 mi South 15.0 mph - N/A   Mostly Cloudy
5:58 AM 17.6 °F 2.7 °F 10.4 °F 73% 29.89 in 10.0 mi South 16.1 mph - N/A   Overcast
6:17 AM 17.6 °F 1.7 °F 10.4 °F 73% 29.89 in 10.0 mi South 18.4 mph - N/A   Overcast
6:36 AM 17.6 °F 2.2 °F 10.4 °F 73% 29.88 in 10.0 mi South 17.3 mph - N/A   Mostly Cloudy
6:55 AM 17.6 °F 2.7 °F 10.4 °F 73% 29.88 in 10.0 mi South 16.1 mph - N/A   Scattered Clouds
7:15 AM 17.6 °F 3.2 °F 10.4 °F 73% 29.88 in 10.0 mi South 15.0 mph - N/A   Clear
7:19 AM 17.6 °F 3.2 °F 10.4 °F 73% 29.88 in 10.0 mi South 15.0 mph - N/A   Clear
7:37 AM 17.6 °F 2.7 °F 12.2 °F 79% 29.87 in 10.0 mi South 16.1 mph - N/A   Clear
7:55 AM 17.6 °F 3.7 °F 12.2 °F 79% 29.89 in 10.0 mi South 13.8 mph - N/A   Scattered Clouds
8:15 AM 19.4 °F 6.0 °F 12.2 °F 74% 29.89 in 10.0 mi South 13.8 mph - N/A   Scattered Clouds
8:16 AM 19.4 °F 6.0 °F 12.2 °F 74% 29.89 in 10.0 mi South 13.8 mph - N/A   Scattered Clouds
8:35 AM 19.4 °F 6.0 °F 12.2 °F 74% 29.89 in 10.0 mi South 13.8 mph - N/A   Scattered Clouds
8:58 AM 19.4 °F 5.5 °F 12.2 °F 74% 29.89 in 10.0 mi South 15.0 mph - N/A   Scattered Clouds
9:16 AM 19.4 °F 6.0 °F 14.0 °F 80% 29.89 in 10.0 mi South 13.8 mph - N/A   Mostly Cloudy
9:35 AM 21.2 °F - 15.8 °F 80% 29.90 in 10.0 mi Calm Calm - N/A   Overcast
9:36 AM 21.2 °F 12.6 °F 15.8 °F 80% 29.90 in 10.0 mi South 6.9 mph 12.7 mph N/A   Overcast
9:55 AM 21.2 °F 7.3 °F 15.8 °F 80% 29.91 in 10.0 mi South 16.1 mph - N/A   Overcast
9:56 AM 21.2 °F 7.3 °F 15.8 °F 80% 29.91 in 10.0 mi South 16.1 mph - N/A   Overcast
10:15 AM 21.2 °F 8.3 °F 15.8 °F 80% 29.91 in 10.0 mi South 13.8 mph - N/A   Overcast
10:20 AM 21.2 °F 7.8 °F 15.8 °F 80% 29.90 in 10.0 mi South 15.0 mph - N/A   Overcast
10:38 AM 21.2 °F 8.3 °F 15.8 °F 80% 29.92 in 10.0 mi South 13.8 mph - N/A   Overcast
10:56 AM 21.2 °F 8.3 °F 17.6 °F 86% 29.91 in 10.0 mi South 13.8 mph - N/A   Mostly Cloudy
11:15 AM 23.0 °F 11.1 °F 17.6 °F 80% 29.90 in 10.0 mi South 12.7 mph - N/A   Scattered Clouds
11:16 AM 23.0 °F 11.1 °F 17.6 °F 80% 29.90 in 10.0 mi South 12.7 mph - N/A   Scattered Clouds
11:35 AM 23.0 °F 11.7 °F 17.6 °F 80% 29.90 in 10.0 mi South 11.5 mph - N/A   Scattered Clouds
11:36 AM 23.0 °F 11.7 °F 17.6 °F 80% 29.90 in 10.0 mi South 11.5 mph - N/A   Scattered Clouds
11:59 AM 24.8 °F 14.6 °F 19.4 °F 80% 29.90 in 10.0 mi SSW 10.4 mph - N/A   Scattered Clouds
12:16 PM 24.8 °F 14.6 °F 19.4 °F 80% 29.90 in 10.0 mi South 10.4 mph - N/A   Scattered Clouds
12:35 PM 26.6 °F 16.8 °F 19.4 °F 74% 29.89 in 10.0 mi South 10.4 mph - N/A   Mostly Cloudy
12:56 PM 26.6 °F 16.8 °F 19.4 °F 74% 29.89 in 10.0 mi SSW 10.4 mph - N/A   Overcast
1:15 PM 26.6 °F 16.8 °F 19.4 °F 74% 29.89 in 10.0 mi SSW 10.4 mph - N/A   Overcast
1:38 PM 26.6 °F 21.2 °F 19.4 °F 74% 29.88 in 10.0 mi SSW 4.6 mph - N/A   Overcast
1:55 PM 28.4 °F 22.2 °F 21.2 °F 74% 29.88 in 5.0 mi SW 5.8 mph - N/A Snow Light Snow
2:15 PM 28.4 °F 19.1 °F 21.2 °F 74% 29.88 in 10.0 mi SW 10.4 mph - N/A Snow Light Snow
2:16 PM 28.4 °F 19.7 °F 21.2 °F 74% 29.88 in 10.0 mi SSW 9.2 mph - N/A Snow Light Snow
2:35 PM 28.4 °F 19.1 °F 21.2 °F 74% 29.89 in 3.0 mi SW 10.4 mph - N/A Snow Light Snow
2:36 PM 28.4 °F 19.1 °F 21.2 °F 74% 29.89 in 3.0 mi SW 10.4 mph - N/A Snow Light Snow
3:17 PM 28.4 °F 22.2 °F 23.0 °F 80% 29.90 in 4.0 mi WSW 5.8 mph - N/A Snow Light Snow
3:36 PM 28.4 °F 22.2 °F 24.8 °F 86% 29.91 in 3.0 mi WSW 5.8 mph - N/A Snow Light Snow
3:55 PM 28.4 °F - 24.8 °F 86% 29.92 in 3.0 mi Calm Calm - N/A Snow Light Snow
3:56 PM 28.4 °F - 24.8 °F 86% 29.92 in 3.0 mi Calm Calm - N/A Snow Light Snow
4:20 PM 28.4 °F - 24.8 °F 86% 29.92 in 2.5 mi Calm Calm - N/A Snow Light Snow
4:37 PM 28.4 °F - 24.8 °F 86% 29.92 in 1.8 mi Calm Calm - N/A Snow Light Snow
4:56 PM 28.4 °F - 26.6 °F 93% 29.93 in 10.0 mi Calm Calm - N/A   Overcast
5:15 PM 28.4 °F - 26.6 °F 93% 29.93 in 10.0 mi Calm Calm - N/A   Overcast
5:16 PM 28.4 °F - 26.6 °F 93% 29.93 in 10.0 mi Calm Calm - N/A   Overcast
5:35 PM 28.4 °F - 26.6 °F 93% 29.93 in 10.0 mi Calm Calm - N/A   Overcast
6:16 PM 28.4 °F - 26.6 °F 93% 29.95 in 10.0 mi Calm Calm - N/A   Overcast
6:35 PM 28.4 °F 19.7 °F 26.6 °F 93% 29.96 in 10.0 mi NW 9.2 mph - N/A   Overcast
6:55 PM 28.4 °F 20.4 °F 24.8 °F 86% 29.97 in 10.0 mi NW 8.1 mph - N/A   Overcast
7:15 PM 28.4 °F 19.1 °F 24.8 °F 86% 29.98 in 10.0 mi NNW 10.4 mph - N/A   Overcast
7:19 PM 28.4 °F 19.7 °F 24.8 °F 86% 29.98 in 10.0 mi NNW 9.2 mph 16.1 mph N/A   Overcast
7:55 PM 26.6 °F 16.2 °F 21.2 °F 80% 30.00 in 10.0 mi NNW 11.5 mph - N/A   Overcast
8:15 PM 26.6 °F 18.2 °F 21.2 °F 80% 30.00 in 10.0 mi NW 8.1 mph 18.4 mph N/A   Overcast
8:16 PM 26.6 °F 18.2 °F 21.2 °F 80% 30.00 in 10.0 mi NW 8.1 mph - N/A   Overcast
8:35 PM 26.6 °F 16.2 °F 21.2 °F 80% 30.01 in 10.0 mi NNW 11.5 mph 16.1 mph N/A   Overcast
8:36 PM 26.6 °F 17.5 °F 21.2 °F 80% 30.01 in 10.0 mi NNW 9.2 mph - N/A   Overcast
8:59 PM 26.6 °F 16.8 °F 21.2 °F 80% 30.02 in 10.0 mi NNW 10.4 mph - N/A   Overcast
9:36 PM 26.6 °F 19.1 °F 19.4 °F 74% 30.03 in 10.0 mi NNW 6.9 mph - N/A   Overcast
9:55 PM 26.6 °F 16.8 °F 19.4 °F 74% 30.03 in 10.0 mi NNW 10.4 mph - N/A   Overcast
9:56 PM 26.6 °F 17.5 °F 19.4 °F 74% 30.03 in 10.0 mi NNW 9.2 mph - N/A   Overcast
10:15 PM 26.6 °F 17.5 °F 19.4 °F 74% 30.03 in 10.0 mi NNW 9.2 mph - N/A   Overcast
10:19 PM 26.6 °F 17.5 °F 19.4 °F 74% 30.03 in 10.0 mi NNW 9.2 mph - N/A   Overcast
10:38 PM 26.6 °F 17.5 °F 19.4 °F 74% 30.04 in 10.0 mi NNW 9.2 mph - N/A   Overcast
10:55 PM 24.8 °F - 19.4 °F 80% 30.05 in 10.0 mi Calm Calm - N/A   Overcast
11:15 PM 24.8 °F 16.9 °F 19.4 °F 80% 30.05 in 10.0 mi NNW 6.9 mph - N/A   Overcast
11:16 PM 24.8 °F 15.3 °F 19.4 °F 80% 30.05 in 10.0 mi NNW 9.2 mph - N/A   Overcast
11:35 PM 24.8 °F 17.9 °F 19.4 °F 80% 30.06 in 10.0 mi NNW 5.8 mph - N/A   Overcast
11:36 PM 24.8 °F 19.1 °F 19.4 °F 80% 30.06 in 10.0 mi NNW 4.6 mph - N/A   Overcast
11:58 PM 24.8 °F 17.9 °F 17.6 °F 74% 30.06 in 10.0 mi NNW 5.8 mph - N/A   Overcast